Weather History for Anchorage Merrill, AK

Change the Weather History Date:

Sunday, April 21, 2013

  Actual Average Record
Temperature  
Mean Temperature 34 °F -  
Max Temperature 44 °F 47 °F 55 °F (2007)
Min Temperature 26 °F 30 °F 24 °F (1997)
Degree Days  
Heating Degree Days 30    
Moisture  
Dew Point 21 °F    
Average Humidity 58    
Maximum Humidity 78    
Minimum Humidity 32    
Precipitation  
Precipitation 0.00 in - - ()
Snow  
Snow 0.00 in - - ()
Snow Depth 10.00 in    
Sea Level Pressure  
Sea Level Pressure 30.37 in    
Wind  
Wind Speed 2 mph (WNW)    
Max Wind Speed 9 mph    
Max Gust Speed -    
Visibility 10 miles    
Events      
Averages and records for this station are not official NWS values.
T = Trace of Precipitation, MM = Missing Value Source: NWS Daily Summary

Daily Weather History Graph

Daily Weather History Graph

Search for Another Location

Airport:

Trip Planner

Search our weather history database for the weather conditions in past years. The results will help you decide how hot, cold, wet, or windy it might be!

Date:

Astronomy

Apr. 21, 2013 Rise Set
Actual Time 6:18 AM AKDT 9:38 PM AKDT
Civil Twilight 5:27 AM AKDT 10:30 PM AKDT
Nautical Twilight 4:14 AM AKDT 11:45 PM AKDT
Astronomical Twilight 2:30 AM AKDT 1:25 AM AKDT
Moon 4:30 PM AKDT (4/21) 4:57 AM AKDT (4/21)
Length of Visible Light 17h 02m
Length of Day
15h 19m
Waxing Gibbous, 81% of the Moon is Illuminated
Apr 21
Waxing Gibbous
Apr 25
Full
May 2
Last Quarter
May 9
New
May 17
First Quarter

Hourly Weather History & Observations

Time (AKDT) Temp. Windchill Dew Point Humidity Pressure Visibility Wind Dir Wind Speed Gust Speed Precip Events Conditions
12:53 AM 30.9 °F - 21.0 °F 67% 30.41 in 10.0 mi Calm Calm - N/A   Clear
1:53 AM 30.9 °F - 21.0 °F 67% 30.40 in 10.0 mi Calm Calm - N/A   Clear
2:53 AM 30.0 °F - 21.0 °F 69% 30.40 in 10.0 mi Calm Calm - N/A   Clear
3:53 AM 27.0 °F - 19.9 °F 75% 30.40 in 10.0 mi Calm Calm - N/A   Clear
4:53 AM 28.0 °F - 19.9 °F 72% 30.39 in 10.0 mi Calm Calm - N/A   Clear
5:53 AM 26.1 °F - 19.9 °F 78% 30.39 in 10.0 mi Calm Calm - N/A   Clear
6:53 AM 26.1 °F - 19.9 °F 78% 30.38 in 10.0 mi Calm Calm - N/A   Scattered Clouds
7:53 AM 30.0 °F 26.5 °F 21.0 °F 69% 30.38 in 10.0 mi North 3.5 mph - N/A   Clear
8:53 AM 35.1 °F - 19.9 °F 54% 30.38 in 10.0 mi Calm Calm - N/A   Clear
9:53 AM 35.1 °F 30.1 °F 19.9 °F 54% 30.37 in 10.0 mi NNW 5.8 mph - N/A   Clear
10:53 AM 37.9 °F 33.5 °F 19.9 °F 48% 30.37 in 10.0 mi NNW 5.8 mph - N/A   Clear
11:53 AM 39.9 °F 35.1 °F 17.1 °F 40% 30.37 in 10.0 mi NNW 6.9 mph - N/A   Scattered Clouds
12:53 PM 42.1 °F 36.6 °F 16.0 °F 35% 30.36 in 10.0 mi NNW 9.2 mph - N/A   Scattered Clouds
1:53 PM 43.0 °F 38.2 °F 15.1 °F 32% 30.36 in 10.0 mi NNW 8.1 mph - N/A   Mostly Cloudy
2:53 PM 43.0 °F 40.3 °F 17.1 °F 35% 30.36 in 10.0 mi NW 4.6 mph - N/A   Overcast
3:53 PM 42.1 °F 38.4 °F 19.0 °F 40% 30.36 in 10.0 mi West 5.8 mph - N/A   Overcast
4:53 PM 42.1 °F 38.4 °F 21.0 °F 43% 30.35 in 10.0 mi SW 5.8 mph - N/A   Overcast
5:53 PM 39.9 °F 35.8 °F 24.1 °F 53% 30.34 in 10.0 mi SW 5.8 mph - N/A   Overcast
6:53 PM 39.2 °F 35.0 °F 25.0 °F 57% 30.34 in 10.0 mi SSW 5.8 mph - N/A   Overcast
7:53 PM 39.0 °F 33.4 °F 26.1 °F 60% 30.34 in 10.0 mi South 8.1 mph - N/A   Overcast
8:53 PM 39.0 °F 36.8 °F 27.0 °F 62% 30.35 in 10.0 mi WSW 3.5 mph - N/A   Overcast
9:53 PM 37.9 °F - 28.0 °F 68% 30.38 in 10.0 mi Calm Calm - N/A   Overcast
10:53 PM 37.0 °F 34.5 °F 28.9 °F 73% 30.40 in 10.0 mi NNW 3.5 mph - N/A   Mostly Cloudy
11:53 PM 37.0 °F 34.5 °F 28.0 °F 70% 30.40 in 10.0 mi North 3.5 mph - N/A   Mostly Cloudy